Location: Cassagne
(43.1218°N, 0.9901°E)
Time: 10:01:07
(UTC+00:00)

BREEZE-M DEB (TANK) - Pass Details

Date: 17 February 2020
Orbit: 272 x 13109 km, 49.6° (Epoch: 09 April)

Event Time Altitude Azimuth Distance (km) Brightness Sun altitude
Exits shadow 05:45:25 15° 300° (WNW) 2,005 4.6 -12.7°
Maximum altitude 05:49:35 83° 28° (NNE) 1,356 4.3 -12.0°
Drops below altitude 10° 06:09:00 10° 119° (ESE) 8,172 9.6 -8.5°
Sets 06:20:53 0° 121° (ESE) 11,611 10.6 -6.3°
